{"data":{"norad_id":66361,"intl_designator":"2025-254P","name":"STARLINK-35813","alt_names":[],"object_type":"PAYLOAD","status":"ACTIVE","operator":null,"country":"US","launch_date":"2025-11-06","launch_site_code":"AFWTR","launch_vehicle":null,"mission":null,"orbit_class":"UNKNOWN","rcs_meters":null,"size_class":null,"mass_kg":null,"dimensions":null,"purposes":["comms"],"wikipedia_slug":null,"has_3d_model":false,"image_url":null,"decayed_at":null,"tle_current":{"epoch":"2026-05-24T23:47:42.753984Z","epoch_age_seconds":76601,"freshness":"FRESH","line1":"1 66361U 25254P   26144.99146706  .00019591  00000+0  64117-3 0  9995","line2":"2 66361  53.1594 237.6225 0001376  93.5223 266.5936 15.31712924 30666","mean_motion":15.31712924,"eccentricity":0.0001376,"inclination_deg":53.1594,"raan_deg":237.6225,"arg_perigee_deg":93.5223,"mean_anomaly_deg":266.5936,"bstar":0.00064117,"rev_number":3066,"period_min":94.012394714246,"perigee_km":469.75906955161,"apogee_km":471.64386989848,"semimajor_km":6848.838469725,"source":"CELESTRAK","updated_at":"2026-05-25T13:38:21.176651Z"}}}